START_TIME,STEP,MOV.,AL01,t_acc.,AL02,t_acc.,E37,t_acc.,H21,t_acc.
1979-02-28 12:00:23.740 ,4,1,0.,24.0,0.,24.0,0.,24.0,0.,24.0
1979-02-28 12:00:47.740 ,3,1,0.,24.0,0.,24.0,0.,24.0,0.,24.0
1979-02-28 12:01:11.740 ,2,1,0.,24.0,0.,24.0,1.,24.0,0.,24.0
1979-02-28 12:01:35.740 ,1,1,0.,24.0,0.,24.0,0.,24.0,0.,24.0
1979-02-28 12:01:59.740 ,0,1,1.,24.0,0.,24.0,0.,24.0,0.,24.0
1979-02-28 12:02:23.740 ,0,1,0.,24.0,0.,24.0,0.,24.0,0.,24.0
1979-02-28 12:02:47.740 ,1,1,0.,24.0,0.,24.0,0.,24.0,0.,24.0
1979-02-28 12:03:11.740 ,2,1,0.,24.0,0.,24.0,0.,24.0,0.,24.0
1979-02-28 12:03:35.740 ,3,1,0.,24.0,0.,24.0,0.,24.0,0.,24.0
1979-02-28 12:03:59.740 ,4,1,0.,24.0,0.,24.0,0.,24.0,0.,24.0
1979-02-28 12:04:23.740 ,5,1,0.,24.0,0.,24.0,0.,24.0,0.,24.0
1979-02-28 12:04:47.740 ,6,1,0.,24.0,0.,24.0,0.,24.0,0.,24.0
1979-02-28 12:05:11.740 ,7,1,2.,24.0,0.,24.0,2.,24.0,0.,24.0
1979-02-28 12:05:35.740 ,7,1,7.,24.0,0.,24.0,0.,24.0,0.,24.0
1979-02-28 12:05:59.740 ,6,1,6.,24.0,0.,24.0,2.,24.0,0.,24.0
1979-02-28 12:06:23.740 ,5,1,0.,24.0,0.,24.0,0.,24.0,0.,24.0
1979-02-28 12:06:47.740 ,4,1,0.,24.0,0.,24.0,1.,24.0,0.,24.0
1979-02-28 12:07:11.740 ,3,1,0.,24.0,0.,24.0,0.,24.0,0.,24.0
1979-02-28 12:07:35.740 ,2,1,0.,24.0,1.,24.0,0.,24.0,0.,24.0
1979-02-28 12:07:59.740 ,1,1,0.,24.0,0.,24.0,0.,24.0,0.,24.0
1979-02-28 12:08:23.740 ,0,1,0.,24.0,0.,24.0,0.,24.0,0.,24.0
1979-02-28 12:08:47.740 ,0,1,0.,24.0,0.,24.0,0.,24.0,0.,24.0
1979-02-28 12:09:11.740 ,1,1,1.,24.0,0.,24.0,0.,24.0,0.,24.0
1979-02-28 12:09:35.740 ,2,1,2.,24.0,0.,24.0,0.,24.0,0.,24.0
1979-02-28 12:09:59.740 ,3,1,0.,24.0,1.,24.0,1.,24.0,0.,24.0
1979-02-28 12:10:23.740 ,4,1,1.,24.0,0.,24.0,0.,24.0,0.,24.0
1979-02-28 12:10:47.740 ,5,1,0.,24.0,0.,24.0,0.,24.0,0.,24.0
1979-02-28 12:11:11.740 ,6,1,0.,24.0,0.,24.0,0.,24.0,0.,24.0
1979-02-28 12:11:35.740 ,7,1,2.,24.0,0.,24.0,0.,24.0,0.,24.0
1979-02-28 12:11:59.740 ,7,1,11.,24.0,0.,24.0,0.,24.0,0.,24.0
1979-02-28 12:12:23.740 ,6,1,11.,24.0,0.,24.0,1.,24.0,0.,24.0
1979-02-28 12:12:47.740 ,5,1,0.,24.0,0.,24.0,0.,24.0,0.,24.0
1979-02-28 12:13:11.740 ,4,1,0.,24.0,0.,24.0,0.,24.0,0.,24.0
1979-02-28 12:13:35.740 ,3,1,0.,24.0,0.,24.0,1.,24.0,0.,24.0
1979-02-28 12:13:59.740 ,2,1,0.,24.0,0.,24.0,0.,24.0,0.,24.0
1979-02-28 12:14:23.740 ,1,1,0.,24.0,0.,24.0,1.,24.0,0.,24.0
1979-02-28 12:14:47.740 ,0,1,0.,24.0,0.,24.0,0.,24.0,0.,24.0
1979-02-28 12:15:11.740 ,0,1,0.,24.0,0.,24.0,0.,24.0,0.,24.0
1979-02-28 12:15:35.740 ,1,1,0.,24.0,0.,24.0,0.,24.0,0.,24.0
1979-02-28 12:15:59.740 ,2,1,0.,24.0,0.,24.0,0.,24.0,0.,24.0
1979-02-28 12:16:23.740 ,3,1,0.,24.0,0.,24.0,0.,24.0,0.,24.0
1979-02-28 12:16:47.740 ,4,1,0.,24.0,0.,24.0,0.,24.0,0.,24.0
1979-02-28 12:17:11.740 ,5,1,0.,24.0,0.,24.0,1.,24.0,0.,24.0
1979-02-28 12:17:35.740 ,6,1,0.,24.0,0.,24.0,0.,24.0,0.,24.0
1979-02-28 12:17:59.740 ,7,1,6.,24.0,0.,24.0,0.,24.0,0.,24.0
1979-02-28 12:18:23.740 ,7,1,9.,24.0,0.,24.0,0.,24.0,0.,24.0
1979-02-28 12:18:47.740 ,6,1,13.,24.0,0.,24.0,1.,24.0,0.,24.0
1979-02-28 12:19:11.740 ,5,1,0.,24.0,0.,24.0,0.,24.0,0.,24.0
1979-02-28 12:19:35.740 ,4,1,0.,24.0,0.,24.0,0.,24.0,0.,24.0
1979-02-28 12:19:59.740 ,3,1,0.,24.0,0.,24.0,0.,24.0,0.,24.0
1979-02-28 12:20:23.740 ,2,1,0.,24.0,0.,24.0,0.,24.0,0.,24.0
1979-02-28 12:20:47.740 ,1,1,0.,24.0,0.,24.0,0.,24.0,0.,24.0
1979-02-28 12:21:11.740 ,0,1,1.,24.0,0.,24.0,0.,24.0,0.,24.0
1979-02-28 12:21:35.740 ,0,1,0.,24.0,0.,24.0,0.,24.0,0.,24.0
1979-02-28 12:21:59.740 ,1,1,1.,24.0,0.,24.0,0.,24.0,0.,24.0
1979-02-28 12:22:23.740 ,2,1,0.,24.0,1.,24.0,1.,24.0,0.,24.0
1979-02-28 12:22:47.740 ,3,1,0.,24.0,0.,24.0,0.,24.0,0.,24.0
1979-02-28 12:23:11.740 ,4,1,0.,24.0,0.,24.0,0.,24.0,0.,24.0
1979-02-28 12:23:35.740 ,5,1,0.,24.0,0.,24.0,0.,24.0,0.,24.0
1979-02-28 12:23:59.740 ,6,1,1.,24.0,0.,24.0,0.,24.0,0.,24.0
1979-02-28 12:24:23.740 ,7,1,2.,24.0,0.,24.0,0.,24.0,0.,24.0
1979-02-28 12:24:47.740 ,7,1,11.,24.0,0.,24.0,0.,24.0,0.,24.0
1979-02-28 12:25:11.740 ,6,1,9.,24.0,0.,24.0,0.,24.0,0.,24.0
1979-02-28 12:25:35.740 ,5,1,0.,24.0,0.,24.0,0.,24.0,0.,24.0
1979-02-28 12:25:59.740 ,4,1,0.,24.0,0.,24.0,1.,24.0,0.,24.0
1979-02-28 12:26:23.740 ,3,1,0.,24.0,0.,24.0,1.,24.0,0.,24.0
1979-02-28 12:26:47.740 ,2,1,0.,24.0,0.,24.0,0.,24.0,0.,24.0
1979-02-28 12:27:11.740 ,1,1,0.,24.0,0.,24.0,0.,24.0,0.,24.0
1979-02-28 12:27:35.740 ,0,1,1.,24.0,0.,24.0,0.,24.0,0.,24.0
1979-02-28 12:27:59.740 ,0,1,0.,24.0,0.,24.0,0.,24.0,0.,24.0
1979-02-28 12:28:23.740 ,1,1,0.,24.0,0.,24.0,0.,24.0,0.,24.0
1979-02-28 12:28:47.740 ,2,1,0.,24.0,0.,24.0,0.,24.0,0.,24.0
1979-02-28 12:29:11.740 ,3,1,0.,24.0,0.,24.0,1.,24.0,0.,24.0
1979-02-28 12:29:35.740 ,4,1,0.,24.0,0.,24.0,0.,24.0,0.,24.0
1979-02-28 12:29:59.740 ,5,1,0.,24.0,0.,24.0,0.,24.0,0.,24.0
1979-02-28 12:30:23.740 ,6,1,0.,24.0,0.,24.0,0.,24.0,0.,24.0
1979-02-28 12:30:47.740 ,7,1,0.,24.0,0.,24.0,0.,24.0,0.,24.0
1979-02-28 12:31:11.740 ,7,1,9.,24.0,0.,24.0,0.,24.0,0.,24.0
1979-02-28 12:31:35.740 ,6,1,8.,24.0,0.,24.0,0.,24.0,0.,24.0
1979-02-28 12:31:59.740 ,5,1,0.,24.0,0.,24.0,0.,24.0,0.,24.0
1979-02-28 12:32:23.740 ,4,1,0.,24.0,0.,24.0,0.,24.0,0.,24.0
1979-02-28 12:32:47.740 ,3,1,0.,24.0,0.,24.0,0.,24.0,0.,24.0
1979-02-28 12:33:11.740 ,2,1,0.,24.0,1.,24.0,0.,24.0,0.,24.0
1979-02-28 12:33:35.740 ,1,1,0.,24.0,0.,24.0,0.,24.0,0.,24.0
1979-02-28 12:33:59.740 ,0,1,0.,24.0,1.,24.0,0.,24.0,0.,24.0
1979-02-28 12:34:23.740 ,0,1,0.,24.0,0.,24.0,0.,24.0,0.,24.0
1979-02-28 12:34:47.740 ,1,1,0.,24.0,0.,24.0,0.,24.0,0.,24.0
1979-02-28 12:35:11.740 ,2,1,1.,24.0,0.,24.0,0.,24.0,0.,24.0
1979-02-28 12:35:35.740 ,3,1,0.,24.0,0.,24.0,0.,24.0,0.,24.0
1979-02-28 12:35:59.740 ,4,1,0.,24.0,0.,24.0,0.,24.0,0.,24.0
1979-02-28 12:36:23.740 ,5,1,0.,24.0,0.,24.0,0.,24.0,0.,24.0
1979-02-28 12:36:47.740 ,6,1,0.,24.0,0.,24.0,0.,24.0,0.,24.0
1979-02-28 12:37:11.740 ,7,1,4.,24.0,0.,24.0,0.,24.0,0.,24.0
1979-02-28 12:37:35.740 ,7,1,9.,24.0,0.,24.0,2.,24.0,0.,24.0
1979-02-28 12:37:59.740 ,6,1,6.,24.0,0.,24.0,0.,24.0,0.,24.0
1979-02-28 12:38:23.740 ,5,1,0.,24.0,0.,24.0,1.,24.0,0.,24.0
1979-02-28 12:38:47.740 ,4,1,0.,24.0,0.,24.0,0.,24.0,0.,24.0
1979-02-28 12:39:11.740 ,3,1,0.,24.0,0.,24.0,1.,24.0,0.,24.0
1979-02-28 12:39:35.740 ,2,1,0.,24.0,0.,24.0,0.,24.0,0.,24.0
1979-02-28 12:39:59.740 ,1,1,0.,24.0,0.,24.0,1.,24.0,0.,24.0
1979-02-28 12:40:23.740 ,0,1,1.,24.0,0.,24.0,1.,24.0,0.,24.0
1979-02-28 12:40:47.740 ,0,1,0.,24.0,0.,24.0,1.,24.0,0.,24.0
1979-02-28 12:41:11.740 ,1,1,0.,24.0,0.,24.0,1.,24.0,0.,24.0
1979-02-28 12:41:35.740 ,2,1,2.,24.0,0.,24.0,0.,24.0,0.,24.0
1979-02-28 12:41:59.740 ,3,1,0.,24.0,0.,24.0,0.,24.0,0.,24.0
1979-02-28 12:42:23.740 ,4,1,0.,24.0,0.,24.0,0.,24.0,0.,24.0
1979-02-28 12:42:47.740 ,5,1,0.,24.0,0.,24.0,1.,24.0,0.,24.0
1979-02-28 12:43:11.740 ,6,1,0.,24.0,0.,24.0,0.,24.0,0.,24.0
1979-02-28 12:43:35.740 ,7,1,4.,24.0,0.,24.0,0.,24.0,0.,24.0
1979-02-28 12:43:59.740 ,7,1,11.,24.0,0.,24.0,0.,24.0,0.,24.0
1979-02-28 12:44:23.740 ,6,1,7.,24.0,0.,24.0,0.,24.0,0.,24.0
1979-02-28 12:44:47.740 ,5,1,0.,24.0,0.,24.0,0.,24.0,0.,24.0
1979-02-28 12:45:11.740 ,4,1,0.,24.0,1.,24.0,0.,24.0,0.,24.0
1979-02-28 12:45:35.740 ,3,1,0.,24.0,0.,24.0,0.,24.0,0.,24.0
1979-02-28 12:45:59.740 ,2,1,0.,24.0,0.,24.0,0.,24.0,0.,24.0
1979-02-28 12:46:23.740 ,1,1,0.,24.0,0.,24.0,0.,24.0,0.,24.0
1979-02-28 12:46:47.740 ,0,1,1.,24.0,0.,24.0,0.,24.0,0.,24.0
1979-02-28 12:47:11.740 ,0,1,1.,24.0,0.,24.0,1.,24.0,0.,24.0
1979-02-28 12:47:35.740 ,1,1,0.,24.0,0.,24.0,0.,24.0,0.,24.0
1979-02-28 12:47:59.740 ,2,1,1.,24.0,0.,24.0,1.,24.0,0.,24.0
1979-02-28 12:48:23.740 ,3,1,1.,24.0,0.,24.0,0.,24.0,0.,24.0
1979-02-28 12:48:47.740 ,4,1,0.,24.0,0.,24.0,0.,24.0,0.,24.0
1979-02-28 12:49:11.740 ,5,1,0.,24.0,0.,24.0,0.,24.0,0.,24.0
1979-02-28 12:49:35.740 ,6,1,0.,24.0,0.,24.0,1.,24.0,0.,24.0
1979-02-28 12:49:59.740 ,7,1,0.,24.0,0.,24.0,0.,24.0,0.,24.0
1979-02-28 12:50:23.740 ,7,1,6.,24.0,0.,24.0,0.,24.0,0.,24.0
1979-02-28 12:50:47.740 ,6,1,6.,24.0,0.,24.0,0.,24.0,0.,24.0
1979-02-28 12:51:11.740 ,5,1,0.,24.0,0.,24.0,1.,24.0,0.,24.0
1979-02-28 12:51:35.740 ,4,1,0.,24.0,0.,24.0,0.,24.0,0.,24.0
1979-02-28 12:51:59.740 ,3,1,0.,24.0,0.,24.0,0.,24.0,0.,24.0
1979-02-28 12:52:23.740 ,2,1,0.,24.0,0.,24.0,0.,24.0,0.,24.0
1979-02-28 12:52:47.740 ,1,1,1.,24.0,0.,24.0,0.,24.0,0.,24.0
1979-02-28 12:53:11.740 ,0,1,1.,24.0,0.,24.0,0.,24.0,0.,24.0
1979-02-28 12:53:35.740 ,0,1,0.,24.0,0.,24.0,0.,24.0,0.,24.0
1979-02-28 12:53:59.740 ,1,1,0.,24.0,0.,24.0,1.,24.0,0.,24.0
1979-02-28 12:54:23.740 ,2,1,0.,24.0,0.,24.0,1.,24.0,0.,24.0
1979-02-28 12:54:47.740 ,3,1,0.,24.0,0.,24.0,0.,24.0,0.,24.0
1979-02-28 12:55:11.740 ,4,1,0.,24.0,0.,24.0,0.,24.0,0.,24.0
1979-02-28 12:55:35.740 ,5,1,0.,24.0,0.,24.0,0.,24.0,0.,24.0
1979-02-28 12:55:59.740 ,6,1,0.,24.0,0.,24.0,0.,24.0,0.,24.0
1979-02-28 12:56:23.740 ,7,1,2.,24.0,0.,24.0,0.,24.0,0.,24.0
1979-02-28 12:56:47.740 ,7,1,7.,24.0,0.,24.0,0.,24.0,0.,24.0
1979-02-28 12:57:11.740 ,6,1,1.,24.0,0.,24.0,0.,24.0,0.,24.0
1979-02-28 12:57:35.740 ,5,1,0.,24.0,0.,24.0,0.,24.0,0.,24.0
1979-02-28 12:57:59.740 ,4,1,0.,24.0,0.,24.0,1.,24.0,0.,24.0
1979-02-28 12:58:23.740 ,3,1,1.,24.0,0.,24.0,1.,24.0,0.,24.0
1979-02-28 12:58:47.740 ,2,1,0.,24.0,0.,24.0,0.,24.0,0.,24.0
1979-02-28 12:59:11.740 ,1,1,0.,24.0,0.,24.0,0.,24.0,0.,24.0
1979-02-28 12:59:35.740 ,0,1,0.,24.0,0.,24.0,0.,24.0,0.,24.0
1979-02-28 12:59:59.740 ,0,1,0.,24.0,0.,24.0,0.,24.0,0.,24.0
1979-02-28 13:00:23.740 ,1,1,0.,24.0,0.,24.0,1.,24.0,0.,24.0
1979-02-28 13:00:47.740 ,2,1,1.,24.0,0.,24.0,0.,24.0,0.,24.0
1979-02-28 13:01:11.740 ,3,1,0.,24.0,0.,24.0,0.,24.0,0.,24.0
1979-02-28 13:01:35.740 ,4,1,0.,24.0,0.,24.0,0.,24.0,0.,24.0
1979-02-28 13:01:59.740 ,5,1,0.,24.0,0.,24.0,0.,24.0,0.,24.0
1979-02-28 13:02:23.740 ,6,1,0.,24.0,0.,24.0,0.,24.0,0.,24.0
1979-02-28 13:02:47.740 ,7,1,4.,24.0,0.,24.0,0.,24.0,0.,24.0
1979-02-28 13:03:11.740 ,7,1,7.,24.0,0.,24.0,0.,24.0,0.,24.0
1979-02-28 13:03:35.740 ,6,1,6.,24.0,0.,24.0,1.,24.0,0.,24.0
1979-02-28 13:03:59.740 ,5,1,0.,24.0,0.,24.0,1.,24.0,0.,24.0
1979-02-28 13:04:23.740 ,4,1,0.,24.0,0.,24.0,0.,24.0,0.,24.0
1979-02-28 13:04:47.740 ,3,1,1.,24.0,1.,24.0,0.,24.0,0.,24.0
1979-02-28 13:05:11.740 ,2,1,1.,24.0,0.,24.0,0.,24.0,0.,24.0
1979-02-28 13:05:35.740 ,1,1,0.,24.0,0.,24.0,1.,24.0,0.,24.0
1979-02-28 13:05:59.740 ,0,1,0.,24.0,0.,24.0,0.,24.0,0.,24.0
1979-02-28 13:06:23.740 ,0,1,0.,24.0,0.,24.0,0.,24.0,0.,24.0
1979-02-28 13:06:47.740 ,1,1,0.,24.0,0.,24.0,0.,24.0,0.,24.0
1979-02-28 13:07:11.740 ,2,1,1.,24.0,1.,24.0,0.,24.0,0.,24.0
1979-02-28 13:07:35.740 ,3,1,0.,24.0,0.,24.0,1.,24.0,0.,24.0
1979-02-28 13:07:59.740 ,4,1,0.,24.0,0.,24.0,0.,24.0,0.,24.0
1979-02-28 13:08:23.740 ,5,1,0.,24.0,0.,24.0,0.,24.0,0.,24.0
1979-02-28 13:08:47.740 ,6,1,0.,24.0,0.,24.0,0.,24.0,0.,24.0
1979-02-28 13:09:11.740 ,7,1,3.,24.0,0.,24.0,0.,24.0,0.,24.0
1979-02-28 13:09:35.740 ,7,1,11.,24.0,0.,24.0,0.,24.0,0.,24.0
1979-02-28 13:09:59.740 ,6,1,6.,24.0,0.,24.0,0.,24.0,0.,24.0
1979-02-28 13:10:23.740 ,5,1,0.,24.0,0.,24.0,0.,24.0,0.,24.0
1979-02-28 13:10:47.740 ,4,1,0.,24.0,0.,24.0,0.,24.0,0.,24.0
1979-02-28 13:11:11.740 ,3,1,0.,24.0,0.,24.0,0.,24.0,0.,24.0
1979-02-28 13:11:35.740 ,2,1,0.,24.0,0.,24.0,0.,24.0,0.,24.0
1979-02-28 13:11:59.740 ,1,1,0.,24.0,1.,24.0,1.,24.0,0.,24.0
1979-02-28 13:12:23.740 ,0,1,1.,24.0,0.,24.0,0.,24.0,0.,24.0
1979-02-28 13:12:47.740 ,0,1,0.,24.0,0.,24.0,0.,24.0,0.,24.0
1979-02-28 13:13:11.740 ,1,1,0.,24.0,0.,24.0,0.,24.0,0.,24.0
1979-02-28 13:13:35.740 ,2,1,2.,24.0,0.,24.0,0.,24.0,0.,24.0
1979-02-28 13:13:59.740 ,3,1,0.,24.0,0.,24.0,0.,24.0,0.,24.0
1979-02-28 13:14:23.740 ,4,1,0.,24.0,0.,24.0,0.,24.0,0.,24.0
1979-02-28 13:14:47.740 ,5,1,0.,24.0,0.,24.0,0.,24.0,0.,24.0
1979-02-28 13:15:11.740 ,6,1,0.,24.0,0.,24.0,1.,24.0,0.,24.0
1979-02-28 13:15:35.740 ,7,1,1.,24.0,0.,24.0,0.,24.0,0.,24.0
1979-02-28 13:15:59.740 ,7,1,9.,24.0,0.,24.0,0.,24.0,0.,24.0
1979-02-28 13:16:23.740 ,6,1,6.,24.0,0.,24.0,1.,24.0,0.,24.0
1979-02-28 13:16:47.740 ,5,1,0.,24.0,0.,24.0,3.,24.0,0.,24.0
1979-02-28 13:17:11.740 ,4,1,0.,24.0,0.,24.0,1.,24.0,0.,24.0
1979-02-28 13:17:35.740 ,3,1,0.,24.0,0.,24.0,0.,24.0,0.,24.0
1979-02-28 13:17:59.740 ,2,1,0.,24.0,0.,24.0,0.,24.0,0.,24.0
1979-02-28 13:18:23.740 ,1,1,0.,24.0,0.,24.0,0.,24.0,0.,24.0
1979-02-28 13:18:47.740 ,0,1,2.,24.0,0.,24.0,0.,24.0,0.,24.0
1979-02-28 13:19:11.740 ,0,1,0.,24.0,0.,24.0,0.,24.0,0.,24.0
1979-02-28 13:19:35.740 ,1,1,0.,24.0,0.,24.0,1.,24.0,0.,24.0
1979-02-28 13:19:59.740 ,2,1,0.,24.0,0.,24.0,0.,24.0,0.,24.0
1979-02-28 13:20:23.740 ,3,1,0.,24.0,0.,24.0,0.,24.0,0.,24.0
1979-02-28 13:20:47.740 ,4,1,0.,24.0,0.,24.0,0.,24.0,0.,24.0
1979-02-28 13:21:11.740 ,5,1,0.,24.0,0.,24.0,0.,24.0,0.,24.0
1979-02-28 13:21:35.740 ,6,1,0.,24.0,0.,24.0,0.,24.0,0.,24.0
1979-02-28 13:21:59.740 ,7,1,0.,24.0,0.,24.0,0.,24.0,0.,24.0
1979-02-28 13:22:23.740 ,7,1,7.,24.0,0.,24.0,0.,24.0,0.,24.0
1979-02-28 13:22:47.740 ,6,1,13.,24.0,0.,24.0,1.,24.0,0.,24.0
1979-02-28 13:23:11.740 ,5,1,0.,24.0,0.,24.0,0.,24.0,0.,24.0
1979-02-28 13:23:35.740 ,4,1,0.,24.0,0.,24.0,0.,24.0,0.,24.0
1979-02-28 13:23:59.740 ,3,1,0.,24.0,0.,24.0,0.,24.0,0.,24.0
1979-02-28 13:24:23.740 ,2,1,0.,24.0,0.,24.0,2.,24.0,0.,24.0
1979-02-28 13:24:47.740 ,1,1,0.,24.0,0.,24.0,0.,24.0,0.,24.0
1979-02-28 13:25:11.740 ,0,1,0.,24.0,0.,24.0,0.,24.0,0.,24.0
1979-02-28 13:25:35.740 ,0,1,0.,24.0,1.,24.0,0.,24.0,0.,24.0
1979-02-28 13:25:59.740 ,1,1,0.,24.0,0.,24.0,0.,24.0,0.,24.0
1979-02-28 13:26:23.740 ,2,1,0.,24.0,1.,24.0,0.,24.0,0.,24.0
1979-02-28 13:26:47.740 ,3,1,0.,24.0,0.,24.0,0.,24.0,0.,24.0
1979-02-28 13:27:11.740 ,4,1,0.,24.0,0.,24.0,0.,24.0,0.,24.0
1979-02-28 13:27:35.740 ,5,1,0.,24.0,0.,24.0,0.,24.0,0.,24.0
1979-02-28 13:27:59.740 ,6,1,0.,24.0,0.,24.0,1.,24.0,0.,24.0
1979-02-28 13:28:23.740 ,7,1,3.,24.0,0.,24.0,0.,24.0,0.,24.0
1979-02-28 13:28:47.740 ,7,1,8.,24.0,0.,24.0,0.,24.0,0.,24.0
1979-02-28 13:29:11.740 ,6,1,12.,24.0,0.,24.0,0.,24.0,0.,24.0
1979-02-28 13:29:35.740 ,5,1,0.,24.0,0.,24.0,0.,24.0,0.,24.0
1979-02-28 13:29:59.740 ,4,1,0.,24.0,0.,24.0,0.,24.0,0.,24.0
1979-02-28 13:30:23.740 ,3,1,0.,24.0,0.,24.0,0.,24.0,0.,24.0
1979-02-28 13:30:47.740 ,2,1,0.,24.0,0.,24.0,0.,24.0,0.,24.0
1979-02-28 13:31:11.740 ,1,1,0.,24.0,0.,24.0,0.,24.0,0.,24.0
1979-02-28 13:31:35.740 ,0,1,0.,24.0,0.,24.0,0.,24.0,0.,24.0
1979-02-28 13:31:59.740 ,0,1,0.,24.0,0.,24.0,0.,24.0,0.,24.0
1979-02-28 13:32:23.740 ,1,1,0.,24.0,0.,24.0,0.,24.0,0.,24.0
1979-02-28 13:32:47.740 ,2,1,0.,24.0,0.,24.0,0.,24.0,0.,24.0
1979-02-28 13:33:11.740 ,3,1,0.,24.0,0.,24.0,0.,24.0,0.,24.0
1979-02-28 13:33:35.740 ,4,1,0.,24.0,0.,24.0,0.,24.0,0.,24.0
1979-02-28 13:33:59.740 ,5,1,0.,24.0,0.,24.0,1.,24.0,0.,24.0
1979-02-28 13:34:23.740 ,6,1,0.,24.0,0.,24.0,0.,24.0,0.,24.0
1979-02-28 13:34:47.740 ,7,1,4.,24.0,0.,24.0,0.,24.0,0.,24.0
1979-02-28 13:35:11.740 ,7,1,7.,24.0,0.,24.0,0.,24.0,0.,24.0
1979-02-28 13:35:35.740 ,6,1,7.,24.0,1.,24.0,0.,24.0,0.,24.0
1979-02-28 13:35:59.740 ,5,1,0.,24.0,0.,24.0,0.,24.0,0.,24.0
1979-02-28 13:36:23.740 ,4,1,0.,24.0,0.,24.0,0.,24.0,0.,24.0
1979-02-28 13:36:47.740 ,3,1,1.,24.0,0.,24.0,0.,24.0,0.,24.0
1979-02-28 13:37:11.740 ,2,1,0.,24.0,0.,24.0,0.,24.0,0.,24.0
1979-02-28 13:37:35.740 ,1,1,0.,24.0,0.,24.0,0.,24.0,0.,24.0
1979-02-28 13:37:59.740 ,0,1,0.,24.0,0.,24.0,0.,24.0,0.,24.0
1979-02-28 13:38:23.740 ,0,1,0.,24.0,0.,24.0,1.,24.0,0.,24.0
1979-02-28 13:38:47.740 ,1,1,0.,24.0,0.,24.0,0.,24.0,0.,24.0
1979-02-28 13:39:11.740 ,2,1,0.,24.0,0.,24.0,0.,24.0,0.,24.0
1979-02-28 13:39:35.740 ,3,1,0.,24.0,0.,24.0,1.,24.0,0.,24.0
1979-02-28 13:39:59.740 ,4,1,0.,24.0,0.,24.0,0.,24.0,0.,24.0
1979-02-28 13:40:23.740 ,5,1,0.,24.0,0.,24.0,0.,24.0,0.,24.0
1979-02-28 13:40:47.740 ,6,1,0.,24.0,0.,24.0,0.,24.0,0.,24.0
1979-02-28 13:41:11.740 ,7,1,1.,24.0,0.,24.0,1.,24.0,0.,24.0
1979-02-28 13:41:35.740 ,7,1,12.,24.0,0.,24.0,0.,24.0,0.,24.0
1979-02-28 13:41:59.740 ,6,1,6.,24.0,0.,24.0,0.,24.0,0.,24.0
1979-02-28 13:42:23.740 ,5,1,0.,24.0,0.,24.0,0.,24.0,0.,24.0
1979-02-28 13:42:47.740 ,4,1,0.,24.0,0.,24.0,0.,24.0,0.,24.0
1979-02-28 13:43:11.740 ,3,1,0.,24.0,0.,24.0,0.,24.0,0.,24.0
1979-02-28 13:43:35.740 ,2,1,1.,24.0,0.,24.0,1.,24.0,0.,24.0
1979-02-28 13:43:59.740 ,1,1,0.,24.0,0.,24.0,0.,24.0,0.,24.0
1979-02-28 13:44:23.740 ,0,1,0.,24.0,0.,24.0,0.,24.0,0.,24.0
1979-02-28 13:44:47.740 ,0,1,0.,24.0,0.,24.0,0.,24.0,0.,24.0
1979-02-28 13:45:11.740 ,1,1,0.,24.0,0.,24.0,0.,24.0,0.,24.0
1979-02-28 13:45:35.740 ,2,1,0.,24.0,0.,24.0,0.,24.0,0.,24.0
1979-02-28 13:45:59.740 ,3,1,0.,24.0,0.,24.0,0.,24.0,0.,24.0
1979-02-28 13:46:23.740 ,4,1,0.,24.0,0.,24.0,0.,24.0,0.,24.0
1979-02-28 13:46:47.740 ,5,1,0.,24.0,0.,24.0,0.,24.0,0.,24.0
1979-02-28 13:47:11.740 ,6,1,0.,24.0,0.,24.0,0.,24.0,0.,24.0
1979-02-28 13:47:35.740 ,7,1,1.,24.0,0.,24.0,0.,24.0,0.,24.0
1979-02-28 13:47:59.740 ,7,1,6.,24.0,0.,24.0,0.,24.0,0.,24.0
1979-02-28 13:48:23.740 ,6,1,12.,24.0,0.,24.0,0.,24.0,0.,24.0
1979-02-28 13:48:47.740 ,5,1,0.,24.0,0.,24.0,0.,24.0,0.,24.0
1979-02-28 13:49:11.740 ,4,1,0.,24.0,0.,24.0,0.,24.0,0.,24.0
1979-02-28 13:49:35.740 ,3,1,0.,24.0,0.,24.0,0.,24.0,0.,24.0
1979-02-28 13:49:59.740 ,2,1,1.,24.0,0.,24.0,0.,24.0,0.,24.0
1979-02-28 13:50:23.740 ,1,1,1.,24.0,0.,24.0,0.,24.0,0.,24.0
1979-02-28 13:50:47.740 ,0,0,0.,24.0,0.,24.0,0.,24.0,0.,24.0
1979-02-28 13:51:15.940 ,0,0,0.,24.0,0.,24.0,0.,24.0,0.,24.0
1979-02-28 13:51:35.740 ,1,1,0.,24.0,0.,24.0,0.,24.0,0.,24.0
1979-02-28 13:51:59.740 ,2,1,0.,24.0,0.,24.0,0.,24.0,0.,24.0
1979-02-28 13:52:23.740 ,3,1,0.,24.0,0.,24.0,0.,24.0,0.,24.0
1979-02-28 13:52:47.740 ,4,1,0.,24.0,0.,24.0,0.,24.0,0.,24.0
1979-02-28 13:53:11.740 ,5,1,0.,24.0,0.,24.0,0.,24.0,0.,24.0
1979-02-28 13:53:35.740 ,6,1,0.,24.0,0.,24.0,0.,24.0,0.,24.0
1979-02-28 13:53:59.740 ,7,1,0.,24.0,0.,24.0,0.,24.0,0.,24.0
1979-02-28 13:54:23.740 ,7,1,10.,24.0,0.,24.0,0.,24.0,0.,24.0
1979-02-28 13:54:47.740 ,6,1,6.,24.0,1.,24.0,0.,24.0,0.,24.0
1979-02-28 13:55:11.740 ,5,1,0.,24.0,0.,24.0,0.,24.0,0.,24.0
1979-02-28 13:55:35.740 ,4,1,0.,24.0,0.,24.0,1.,24.0,0.,24.0
1979-02-28 13:55:59.740 ,3,1,0.,24.0,0.,24.0,0.,24.0,0.,24.0
1979-02-28 13:56:23.740 ,2,1,0.,24.0,0.,24.0,1.,24.0,0.,24.0
1979-02-28 13:56:47.740 ,1,1,0.,24.0,0.,24.0,0.,24.0,0.,24.0
1979-02-28 13:57:11.740 ,0,1,1.,24.0,0.,24.0,0.,24.0,0.,24.0
1979-02-28 13:57:35.740 ,0,1,0.,24.0,0.,24.0,0.,24.0,0.,24.0
1979-02-28 13:57:59.740 ,1,1,0.,24.0,0.,24.0,0.,24.0,0.,24.0
1979-02-28 13:58:23.740 ,2,1,0.,24.0,1.,24.0,0.,24.0,0.,24.0
1979-02-28 13:58:47.740 ,3,1,0.,24.0,0.,24.0,0.,24.0,0.,24.0
1979-02-28 13:59:11.740 ,4,1,0.,24.0,0.,24.0,0.,24.0,0.,24.0
1979-02-28 13:59:35.740 ,5,1,0.,24.0,0.,24.0,0.,24.0,0.,24.0
1979-02-28 13:59:59.740 ,6,1,0.,24.0,0.,24.0,0.,24.0,0.,24.0
1979-02-28 14:00:23.740 ,7,1,3.,24.0,1.,24.0,0.,24.0,0.,24.0
1979-02-28 14:00:47.740 ,7,1,6.,24.0,0.,24.0,0.,24.0,0.,24.0
1979-02-28 14:01:11.740 ,6,1,11.,24.0,0.,24.0,0.,24.0,0.,24.0
1979-02-28 14:01:35.740 ,5,1,0.,24.0,0.,24.0,0.,24.0,0.,24.0
1979-02-28 14:01:59.740 ,4,1,0.,24.0,0.,24.0,0.,24.0,0.,24.0
1979-02-28 14:02:23.740 ,3,1,0.,24.0,0.,24.0,0.,24.0,0.,24.0
1979-02-28 14:02:47.740 ,2,1,0.,24.0,0.,24.0,0.,24.0,0.,24.0
1979-02-28 14:03:11.740 ,1,1,1.,24.0,1.,24.0,0.,24.0,0.,24.0
1979-02-28 14:03:35.740 ,0,1,0.,24.0,0.,24.0,0.,24.0,0.,24.0
1979-02-28 14:03:59.740 ,0,1,1.,24.0,0.,24.0,0.,24.0,0.,24.0
1979-02-28 14:04:23.740 ,1,1,1.,24.0,0.,24.0,1.,24.0,0.,24.0
1979-02-28 14:04:47.740 ,2,1,0.,24.0,1.,24.0,0.,24.0,0.,24.0
1979-02-28 14:05:11.740 ,3,1,0.,24.0,0.,24.0,0.,24.0,0.,24.0
1979-02-28 14:05:35.740 ,4,1,0.,24.0,0.,24.0,0.,24.0,0.,24.0
1979-02-28 14:05:59.740 ,5,1,1.,24.0,0.,24.0,0.,24.0,0.,24.0
1979-02-28 14:06:23.740 ,6,1,0.,24.0,0.,24.0,0.,24.0,0.,24.0
1979-02-28 14:06:47.740 ,7,1,0.,24.0,0.,24.0,1.,24.0,0.,24.0
1979-02-28 14:07:11.740 ,7,1,8.,24.0,0.,24.0,0.,24.0,0.,24.0
1979-02-28 14:07:35.740 ,6,1,9.,24.0,0.,24.0,0.,24.0,0.,24.0
1979-02-28 14:07:59.740 ,5,1,0.,24.0,0.,24.0,0.,24.0,0.,24.0
1979-02-28 14:08:23.740 ,4,1,0.,24.0,0.,24.0,0.,24.0,0.,24.0
1979-02-28 14:08:47.740 ,3,1,0.,24.0,0.,24.0,0.,24.0,0.,24.0
1979-02-28 14:09:11.740 ,2,1,0.,24.0,0.,24.0,0.,24.0,0.,24.0
1979-02-28 14:09:35.740 ,1,1,0.,24.0,2.,24.0,1.,24.0,0.,24.0
1979-02-28 14:09:59.740 ,0,1,0.,24.0,0.,24.0,0.,24.0,0.,24.0
1979-02-28 14:10:23.740 ,0,1,0.,24.0,0.,24.0,1.,24.0,0.,24.0
1979-02-28 14:10:47.740 ,1,1,1.,24.0,0.,24.0,0.,24.0,0.,24.0
1979-02-28 14:11:11.740 ,2,1,0.,24.0,0.,24.0,1.,24.0,0.,24.0
1979-02-28 14:11:35.740 ,3,1,0.,24.0,0.,24.0,0.,24.0,0.,24.0
1979-02-28 14:11:59.740 ,4,1,1.,24.0,0.,24.0,1.,24.0,0.,24.0
1979-02-28 14:12:23.740 ,5,1,0.,24.0,0.,24.0,0.,24.0,0.,24.0
1979-02-28 14:12:47.740 ,6,1,0.,24.0,0.,24.0,0.,24.0,0.,24.0
1979-02-28 14:13:11.740 ,7,1,2.,24.0,0.,24.0,0.,24.0,0.,24.0
1979-02-28 14:13:35.740 ,7,1,5.,24.0,0.,24.0,0.,24.0,0.,24.0
1979-02-28 14:13:59.740 ,6,1,9.,24.0,0.,24.0,0.,24.0,0.,24.0
1979-02-28 14:14:23.740 ,5,1,0.,24.0,0.,24.0,0.,24.0,0.,24.0
1979-02-28 14:14:47.740 ,4,1,0.,24.0,0.,24.0,0.,24.0,0.,24.0
1979-02-28 14:15:11.740 ,3,1,0.,24.0,0.,24.0,1.,24.0,0.,24.0
1979-02-28 14:15:35.740 ,2,1,0.,24.0,0.,24.0,0.,24.0,0.,24.0
1979-02-28 14:15:59.740 ,1,1,0.,24.0,2.,24.0,0.,24.0,0.,24.0
1979-02-28 14:16:23.740 ,0,1,0.,24.0,0.,24.0,0.,24.0,0.,24.0
1979-02-28 14:16:47.740 ,0,1,0.,24.0,0.,24.0,1.,24.0,0.,24.0
1979-02-28 14:17:11.740 ,1,1,0.,24.0,0.,24.0,0.,24.0,0.,24.0
1979-02-28 14:18:23.740 ,0,0,1.,24.0,0.,24.0,0.,24.0,0.,24.0
1979-02-28 14:18:47.740 ,5,1,1.,24.0,0.,24.0,0.,24.0,0.,24.0
1979-02-28 14:19:11.740 ,6,1,0.,24.0,0.,24.0,1.,24.0,0.,24.0
1979-02-28 14:19:35.740 ,7,1,0.,24.0,0.,24.0,0.,24.0,0.,24.0
1979-02-28 14:19:59.740 ,7,1,13.,24.0,0.,24.0,0.,24.0,0.,24.0
1979-02-28 14:20:23.740 ,6,1,9.,24.0,0.,24.0,0.,24.0,0.,24.0
1979-02-28 14:20:47.740 ,5,1,0.,24.0,0.,24.0,1.,24.0,0.,24.0
1979-02-28 14:21:11.740 ,4,1,0.,24.0,0.,24.0,0.,24.0,0.,24.0
1979-02-28 14:21:35.740 ,3,1,0.,24.0,0.,24.0,0.,24.0,0.,24.0
1979-02-28 14:21:59.740 ,2,1,0.,24.0,0.,24.0,0.,24.0,0.,24.0
1979-02-28 14:22:23.740 ,1,1,0.,24.0,0.,24.0,0.,24.0,0.,24.0
1979-02-28 14:22:47.740 ,0,1,0.,24.0,0.,24.0,0.,24.0,0.,24.0
1979-02-28 14:23:11.740 ,0,1,0.,24.0,0.,24.0,1.,24.0,0.,24.0
1979-02-28 14:23:35.740 ,1,1,0.,24.0,0.,24.0,0.,24.0,0.,24.0
1979-02-28 14:23:59.740 ,2,1,1.,24.0,0.,24.0,0.,24.0,0.,24.0
1979-02-28 14:24:23.740 ,3,1,0.,24.0,0.,24.0,0.,24.0,0.,24.0
1979-02-28 14:24:47.740 ,4,1,0.,24.0,0.,24.0,0.,24.0,0.,24.0
1979-02-28 14:25:11.740 ,5,1,0.,24.0,0.,24.0,0.,24.0,0.,24.0
1979-02-28 14:25:35.740 ,6,1,0.,24.0,0.,24.0,0.,24.0,0.,24.0
1979-02-28 14:25:59.740 ,7,1,1.,24.0,0.,24.0,0.,24.0,0.,24.0
1979-02-28 14:26:23.740 ,7,1,7.,24.0,0.,24.0,0.,24.0,0.,24.0
1979-02-28 14:26:47.740 ,6,1,10.,24.0,0.,24.0,0.,24.0,0.,24.0
1979-02-28 14:27:11.740 ,5,1,0.,24.0,0.,24.0,0.,24.0,0.,24.0
1979-02-28 14:27:35.740 ,4,1,1.,24.0,0.,24.0,0.,24.0,0.,24.0
1979-02-28 14:27:59.740 ,3,1,0.,24.0,0.,24.0,0.,24.0,0.,24.0
1979-02-28 14:28:23.740 ,2,1,0.,24.0,0.,24.0,0.,24.0,0.,24.0
1979-02-28 14:28:47.740 ,1,1,1.,24.0,0.,24.0,0.,24.0,0.,24.0
1979-02-28 14:29:11.740 ,0,1,1.,24.0,0.,24.0,0.,24.0,0.,24.0
1979-02-28 14:29:35.740 ,0,1,0.,24.0,0.,24.0,0.,24.0,0.,24.0
1979-02-28 14:29:59.740 ,1,1,0.,24.0,0.,24.0,0.,24.0,0.,24.0
1979-02-28 14:30:23.740 ,2,1,1.,24.0,0.,24.0,0.,24.0,0.,24.0
1979-02-28 14:30:47.740 ,3,1,0.,24.0,0.,24.0,1.,24.0,0.,24.0
1979-02-28 14:31:11.740 ,4,1,0.,24.0,0.,24.0,0.,24.0,0.,24.0
1979-02-28 14:31:35.740 ,5,1,0.,24.0,0.,24.0,0.,24.0,0.,24.0
1979-02-28 14:31:59.740 ,6,1,0.,24.0,0.,24.0,0.,24.0,0.,24.0
1979-02-28 14:32:23.740 ,7,1,4.,24.0,0.,24.0,0.,24.0,0.,24.0
1979-02-28 14:32:47.740 ,7,1,12.,24.0,0.,24.0,3.,24.0,0.,24.0
1979-02-28 14:33:11.740 ,6,1,9.,24.0,0.,24.0,0.,24.0,0.,24.0
1979-02-28 14:33:35.740 ,5,1,0.,24.0,0.,24.0,0.,24.0,0.,24.0
1979-02-28 14:33:59.740 ,4,1,0.,24.0,0.,24.0,0.,24.0,0.,24.0
1979-02-28 14:34:23.740 ,3,1,0.,24.0,0.,24.0,0.,24.0,0.,24.0
1979-02-28 14:34:47.740 ,2,1,0.,24.0,0.,24.0,0.,24.0,0.,24.0